Time,TemperatureF,DewpointF,PressureIn,WindDirection,WindDirectionDegrees,WindSpeedMPH,WindSpeedGustMPH,Humidity,HourlyPrecipIn,Conditions,Clouds,dailyrainin,SoftwareType,DateUTC
2016-07-27 00:03:00,75.1,69.9,29.99,East,85,1.0,1.0,84,0.00,,,0.00,Wunderground v.1.15,2016-07-27 04:03:00,
2016-07-27 00:13:00,74.8,70.0,29.99,East,84,1.0,1.0,85,0.00,,,0.00,Wunderground v.1.15,2016-07-27 04:13:00,
2016-07-27 00:18:00,74.6,69.8,29.99,East,84,1.0,1.0,85,0.00,,,0.00,Wunderground v.1.15,2016-07-27 04:18:00,
2016-07-27 00:28:00,74.3,69.8,29.99,East,84,1.0,1.0,86,0.00,,,0.00,Wunderground v.1.15,2016-07-27 04:28:00,
2016-07-27 00:38:00,74.2,69.7,29.99,East,84,1.0,2.0,86,0.00,,,0.00,Wunderground v.1.15,2016-07-27 04:38:00,
2016-07-27 00:43:00,74.2,69.7,29.99,East,84,1.0,1.0,86,0.00,,,0.00,Wunderground v.1.15,2016-07-27 04:43:00,
2016-07-27 00:53:00,74.1,69.6,29.99,East,84,0.0,0.0,86,0.00,,,0.00,Wunderground v.1.15,2016-07-27 04:53:00,
2016-07-27 00:58:00,74.1,70.0,29.99,East,84,0.0,2.0,87,0.00,,,0.00,Wunderground v.1.15,2016-07-27 04:58:00,
2016-07-27 01:13:00,74.1,70.0,29.98,East,84,1.0,1.0,87,0.00,,,0.00,Wunderground v.1.15,2016-07-27 05:13:00,
2016-07-27 01:18:00,74.1,70.0,29.98,East,84,1.0,1.0,87,0.00,,,0.00,Wunderground v.1.15,2016-07-27 05:18:00,
2016-07-27 01:28:00,74.0,69.9,29.98,East,84,2.0,2.0,87,0.00,,,0.00,Wunderground v.1.15,2016-07-27 05:28:00,
2016-07-27 01:38:00,73.8,69.7,29.98,East,84,1.0,1.0,87,0.00,,,0.00,Wunderground v.1.15,2016-07-27 05:38:00,
2016-07-27 01:43:00,73.6,69.5,29.98,East,84,1.0,1.0,87,0.00,,,0.00,Wunderground v.1.15,2016-07-27 05:43:00,
2016-07-27 01:53:00,73.4,69.3,29.98,East,84,2.0,2.0,87,0.00,,,0.00,Wunderground v.1.15,2016-07-27 05:53:00,
2016-07-27 02:03:00,73.2,69.1,29.98,East,84,2.0,2.0,87,0.00,,,0.00,Wunderground v.1.15,2016-07-27 06:03:00,
2016-07-27 02:08:00,73.1,69.3,29.98,East,84,1.0,2.0,88,0.00,,,0.00,Wunderground v.1.15,2016-07-27 06:08:00,
2016-07-27 02:18:00,72.8,69.0,29.98,East,84,1.0,1.0,88,0.00,,,0.00,Wunderground v.1.15,2016-07-27 06:18:00,
2016-07-27 02:23:00,72.8,69.0,29.98,East,84,0.0,0.0,88,0.00,,,0.00,Wunderground v.1.15,2016-07-27 06:23:00,
2016-07-27 02:33:00,72.5,69.1,29.97,East,84,0.0,0.0,89,0.00,,,0.00,Wunderground v.1.15,2016-07-27 06:33:00,
2016-07-27 02:43:00,72.4,69.0,29.97,East,84,0.0,0.0,89,0.00,,,0.00,Wunderground v.1.15,2016-07-27 06:43:00,
2016-07-27 02:48:00,72.4,69.0,29.98,East,85,0.0,0.0,89,0.00,,,0.00,Wunderground v.1.15,2016-07-27 06:48:00,
2016-07-27 02:53:00,72.4,69.0,29.98,East,84,0.0,0.0,89,0.00,,,0.00,Wunderground v.1.15,2016-07-27 06:53:00,
2016-07-27 03:03:00,72.4,69.3,29.97,East,84,0.0,0.0,90,0.00,,,0.00,Wunderground v.1.15,2016-07-27 07:03:00,
2016-07-27 03:13:00,72.4,69.3,29.97,East,85,1.0,1.0,90,0.00,,,0.00,Wunderground v.1.15,2016-07-27 07:13:00,
2016-07-27 03:23:00,72.3,69.2,29.97,East,85,0.0,0.0,90,0.00,,,0.00,Wunderground v.1.15,2016-07-27 07:23:00,
2016-07-27 03:33:00,72.3,69.2,29.97,East,84,0.0,0.0,90,0.00,,,0.00,Wunderground v.1.15,2016-07-27 07:33:00,
2016-07-27 03:38:00,72.3,69.2,29.97,East,84,0.0,0.0,90,0.00,,,0.00,Wunderground v.1.15,2016-07-27 07:38:00,
2016-07-27 03:48:00,72.2,69.4,29.96,East,84,0.0,0.0,91,0.00,,,0.00,Wunderground v.1.15,2016-07-27 07:48:00,
2016-07-27 03:58:00,72.0,69.2,29.96,East,84,0.0,0.0,91,0.00,,,0.00,Wunderground v.1.15,2016-07-27 07:58:00,
2016-07-27 04:07:00,71.9,69.1,29.97,East,84,0.0,0.0,91,0.00,,,0.00,Wunderground v.1.15,2016-07-27 08:07:00,
2016-07-27 04:13:00,71.8,69.0,29.97,East,84,1.0,2.0,91,0.00,,,0.00,Wunderground v.1.15,2016-07-27 08:13:00,
2016-07-27 04:18:00,71.7,68.9,29.96,East,84,2.0,2.0,91,0.00,,,0.00,Wunderground v.1.15,2016-07-27 08:18:00,
2016-07-27 04:28:00,71.5,69.1,29.97,East,84,0.0,1.0,92,0.00,,,0.00,Wunderground v.1.15,2016-07-27 08:28:00,
2016-07-27 04:33:00,71.4,69.0,29.97,East,84,0.0,2.0,92,0.00,,,0.00,Wunderground v.1.15,2016-07-27 08:33:00,
2016-07-27 04:43:00,71.2,68.8,29.97,East,84,1.0,1.0,92,0.00,,,0.00,Wunderground v.1.15,2016-07-27 08:43:00,
2016-07-27 04:53:00,71.1,69.0,29.97,East,84,0.0,0.0,93,0.00,,,0.00,Wunderground v.1.15,2016-07-27 08:53:00,
2016-07-27 04:58:00,71.0,68.9,29.97,East,84,0.0,0.0,93,0.00,,,0.00,Wunderground v.1.15,2016-07-27 08:58:00,
2016-07-27 05:08:00,70.9,68.8,29.97,East,84,0.0,0.0,93,0.00,,,0.00,Wunderground v.1.15,2016-07-27 09:08:00,
2016-07-27 05:18:00,70.8,68.7,29.97,East,84,0.0,0.0,93,0.00,,,0.00,Wunderground v.1.15,2016-07-27 09:18:00,
2016-07-27 05:28:00,70.6,68.8,29.97,East,84,0.0,0.0,94,0.00,,,0.00,Wunderground v.1.15,2016-07-27 09:28:00,
2016-07-27 05:38:00,70.7,68.9,29.98,East,84,0.0,0.0,94,0.00,,,0.00,Wunderground v.1.15,2016-07-27 09:38:00,
2016-07-27 05:48:00,70.7,68.9,29.98,East,84,0.0,0.0,94,0.00,,,0.00,Wunderground v.1.15,2016-07-27 09:48:00,
2016-07-27 05:53:00,70.6,68.8,29.98,East,84,0.0,0.0,94,0.00,,,0.00,Wunderground v.1.15,2016-07-27 09:53:00,
2016-07-27 06:03:00,70.7,69.2,29.98,East,84,0.0,0.0,95,0.00,,,0.00,Wunderground v.1.15,2016-07-27 10:03:00,
2016-07-27 06:13:00,70.8,69.0,29.98,East,84,0.0,0.0,94,0.00,,,0.00,Wunderground v.1.15,2016-07-27 10:13:00,
2016-07-27 06:23:00,70.7,68.9,29.98,East,85,0.0,0.0,94,0.00,,,0.00,Wunderground v.1.15,2016-07-27 10:23:00,
2016-07-27 06:33:00,70.6,69.1,29.98,East,85,0.0,0.0,95,0.00,,,0.00,Wunderground v.1.15,2016-07-27 10:33:00,
2016-07-27 06:38:00,70.6,69.1,29.98,East,84,0.0,0.0,95,0.00,,,0.00,Wunderground v.1.15,2016-07-27 10:38:00,
2016-07-27 06:48:00,70.6,69.1,29.99,East,84,0.0,0.0,95,0.00,,,0.00,Wunderground v.1.15,2016-07-27 10:48:00,
2016-07-27 06:58:00,70.6,69.1,29.99,East,84,0.0,0.0,95,0.00,,,0.00,Wunderground v.1.15,2016-07-27 10:58:00,
2016-07-27 07:08:00,70.9,69.4,29.99,East,84,0.0,0.0,95,0.00,,,0.00,Wunderground v.1.15,2016-07-27 11:08:00,
2016-07-27 07:13:00,71.0,69.8,29.99,East,85,0.0,0.0,96,0.00,,,0.00,Wunderground v.1.15,2016-07-27 11:13:00,
2016-07-27 07:23:00,71.2,70.0,30.00,East,84,1.0,2.0,96,0.00,,,0.00,Wunderground v.1.15,2016-07-27 11:23:00,
2016-07-27 07:33:00,71.6,70.4,30.00,East,84,1.0,1.0,96,0.00,,,0.00,Wunderground v.1.15,2016-07-27 11:33:00,
2016-07-27 07:38:00,71.8,70.6,30.00,East,84,1.0,3.0,96,0.00,,,0.00,Wunderground v.1.15,2016-07-27 11:38:00,
2016-07-27 07:48:00,72.2,71.0,30.00,East,84,1.0,2.0,96,0.00,,,0.00,Wunderground v.1.15,2016-07-27 11:48:00,
2016-07-27 07:58:00,72.6,71.4,30.01,East,84,1.0,2.0,96,0.00,,,0.00,Wunderground v.1.15,2016-07-27 11:58:00,
2016-07-27 08:02:00,72.8,71.6,30.01,East,85,1.0,1.0,96,0.00,,,0.00,Wunderground v.1.15,2016-07-27 12:02:00,
2016-07-27 08:08:00,73.1,71.9,30.01,East,85,1.0,1.0,96,0.00,,,0.00,Wunderground v.1.15,2016-07-27 12:08:00,
2016-07-27 08:13:00,73.3,71.8,30.01,East,84,0.0,0.0,95,0.00,,,0.00,Wunderground v.1.15,2016-07-27 12:13:00,
2016-07-27 08:23:00,74.1,72.6,30.01,East,84,0.0,0.0,95,0.00,,,0.00,Wunderground v.1.15,2016-07-27 12:23:00,
2016-07-27 08:38:00,75.3,72.8,30.01,NNW,336,1.0,4.0,92,0.00,,,0.00,Wunderground v.1.15,2016-07-27 12:38:00,
2016-07-27 08:48:00,75.7,72.6,30.01,NNW,332,2.0,3.0,90,0.00,,,0.00,Wunderground v.1.15,2016-07-27 12:48:00,
2016-07-27 08:58:00,76.0,72.2,30.01,NW,306,2.0,2.0,88,0.00,,,0.00,Wunderground v.1.15,2016-07-27 12:58:00,
2016-07-27 09:08:00,76.7,72.2,30.01,NNW,336,2.0,4.0,86,0.00,,,0.00,Wunderground v.1.15,2016-07-27 13:08:00,
2016-07-27 09:13:00,77.2,72.3,30.01,NNW,327,2.0,2.0,85,0.00,,,0.00,Wunderground v.1.15,2016-07-27 13:13:00,
2016-07-27 09:23:00,78.0,71.7,30.01,WNW,301,2.0,2.0,81,0.00,,,0.00,Wunderground v.1.15,2016-07-27 13:23:00,
2016-07-27 09:33:00,78.5,71.8,30.00,West,276,1.0,1.0,80,0.00,,,0.00,Wunderground v.1.15,2016-07-27 13:33:00,
2016-07-27 09:38:00,78.9,71.8,30.00,NW,316,1.0,3.0,79,0.00,,,0.00,Wunderground v.1.15,2016-07-27 13:38:00,
2016-07-27 09:48:00,79.6,72.1,30.00,WNW,302,1.0,3.0,78,0.00,,,0.00,Wunderground v.1.15,2016-07-27 13:48:00,
2016-07-27 09:58:00,80.4,71.7,30.00,West,279,3.0,3.0,75,0.00,,,0.00,Wunderground v.1.15,2016-07-27 13:58:00,
2016-07-27 10:08:00,80.3,71.3,29.99,NNW,346,3.0,4.0,74,0.00,,,0.00,Wunderground v.1.15,2016-07-27 14:08:00,
2016-07-27 10:18:00,80.8,71.3,29.99,North,9,2.0,4.0,73,0.00,,,0.00,Wunderground v.1.15,2016-07-27 14:18:00,
2016-07-27 10:23:00,81.3,71.4,29.99,NNW,327,2.0,3.0,72,0.00,,,0.00,Wunderground v.1.15,2016-07-27 14:23:00,
2016-07-27 10:33:00,82.5,71.7,29.99,NNW,328,3.0,3.0,70,0.00,,,0.00,Wunderground v.1.15,2016-07-27 14:33:00,
2016-07-27 10:48:00,83.3,72.1,29.98,West,259,2.0,6.0,69,0.00,,,0.00,Wunderground v.1.15,2016-07-27 14:48:00,
2016-07-27 10:58:00,82.9,72.1,29.99,NW,316,3.0,5.0,70,0.00,,,0.00,Wunderground v.1.15,2016-07-27 14:58:00,
2016-07-27 11:03:00,82.5,71.3,29.99,WNW,302,4.0,4.0,69,0.00,,,0.00,Wunderground v.1.15,2016-07-27 15:03:00,
2016-07-27 11:13:00,82.6,71.8,29.99,NW,319,2.0,2.0,70,0.00,,,0.00,Wunderground v.1.15,2016-07-27 15:13:00,
2016-07-27 11:18:00,83.4,71.7,29.99,NNW,336,2.0,2.0,68,0.00,,,0.00,Wunderground v.1.15,2016-07-27 15:18:00,
2016-07-27 11:28:00,83.5,71.8,29.99,SW,226,2.0,2.0,68,0.00,,,0.00,Wunderground v.1.15,2016-07-27 15:28:00,
2016-07-27 11:33:00,83.0,71.3,29.98,WSW,252,2.0,4.0,68,0.00,,,0.00,Wunderground v.1.15,2016-07-27 15:33:00,
2016-07-27 11:43:00,83.8,72.1,29.99,WNW,284,3.0,4.0,68,0.00,,,0.00,Wunderground v.1.15,2016-07-27 15:43:00,
2016-07-27 11:53:00,84.6,71.1,29.99,WSW,257,3.0,5.0,64,0.00,,,0.00,Wunderground v.1.15,2016-07-27 15:53:00,
2016-07-27 12:03:00,83.9,71.8,29.99,WNW,302,3.0,3.0,67,0.00,,,0.00,Wunderground v.1.15,2016-07-27 16:03:00,
2016-07-27 12:08:00,84.1,71.5,29.99,WNW,300,3.0,3.0,66,0.00,,,0.00,Wunderground v.1.15,2016-07-27 16:08:00,
2016-07-27 12:18:00,85.0,71.9,29.99,SW,217,3.0,3.0,65,0.00,,,0.00,Wunderground v.1.15,2016-07-27 16:18:00,
2016-07-27 12:23:00,85.3,72.6,29.99,West,259,3.0,3.0,66,0.00,,,0.00,Wunderground v.1.15,2016-07-27 16:23:00,
2016-07-27 12:33:00,85.2,71.6,29.98,SW,236,3.0,3.0,64,0.00,,,0.00,Wunderground v.1.15,2016-07-27 16:33:00,
2016-07-27 12:43:00,85.6,72.0,29.98,West,273,5.0,8.0,64,0.00,,,0.00,Wunderground v.1.15,2016-07-27 16:43:00,
2016-07-27 12:48:00,85.0,71.5,29.98,SW,226,7.0,8.0,64,0.00,,,0.00,Wunderground v.1.15,2016-07-27 16:48:00,
2016-07-27 12:58:00,84.9,71.4,29.98,SSW,213,4.0,6.0,64,0.00,,,0.00,Wunderground v.1.15,2016-07-27 16:58:00,
2016-07-27 13:08:00,85.7,70.7,29.97,NW,323,4.0,7.0,61,0.00,,,0.00,Wunderground v.1.15,2016-07-27 17:08:00,
2016-07-27 13:13:00,86.4,70.9,29.97,NW,321,4.0,4.0,60,0.00,,,0.00,Wunderground v.1.15,2016-07-27 17:13:00,
2016-07-27 13:23:00,87.0,71.4,29.97,NNW,331,5.0,5.0,60,0.00,,,0.00,Wunderground v.1.15,2016-07-27 17:23:00,
2016-07-27 13:33:00,86.5,71.5,29.97,NNW,329,2.0,3.0,61,0.00,,,0.00,Wunderground v.1.15,2016-07-27 17:33:00,
2016-07-27 13:38:00,86.5,71.0,29.97,NNW,333,2.0,5.0,60,0.00,,,0.00,Wunderground v.1.15,2016-07-27 17:38:00,
2016-07-27 13:48:00,86.7,72.1,29.96,West,259,4.0,4.0,62,0.00,,,0.00,Wunderground v.1.15,2016-07-27 17:48:00,
2016-07-27 13:53:00,87.4,70.3,29.96,West,261,3.0,8.0,57,0.00,,,0.00,Wunderground v.1.15,2016-07-27 17:53:00,
2016-07-27 14:03:00,87.7,70.6,29.96,NW,308,5.0,5.0,57,0.00,,,0.00,Wunderground v.1.15,2016-07-27 18:03:00,
2016-07-27 14:13:00,88.1,69.4,29.96,SW,217,4.0,5.0,54,0.00,,,0.00,Wunderground v.1.15,2016-07-27 18:13:00,
2016-07-27 14:18:00,88.3,70.1,29.96,NW,304,5.0,9.0,55,0.00,,,0.00,Wunderground v.1.15,2016-07-27 18:18:00,
2016-07-27 14:28:00,88.4,70.7,29.96,NW,312,5.0,6.0,56,0.00,,,0.00,Wunderground v.1.15,2016-07-27 18:28:00,
2016-07-27 14:33:00,88.1,69.4,29.96,West,281,4.0,4.0,54,0.00,,,0.00,Wunderground v.1.15,2016-07-27 18:33:00,
2016-07-27 14:43:00,87.7,69.0,29.96,WSW,255,6.0,6.0,54,0.00,,,0.00,Wunderground v.1.15,2016-07-27 18:43:00,
2016-07-27 14:53:00,86.5,68.9,29.95,West,279,4.0,4.0,56,0.00,,,0.00,Wunderground v.1.15,2016-07-27 18:53:00,
2016-07-27 14:58:00,86.2,69.2,29.95,SW,215,2.0,4.0,57,0.00,,,0.00,Wunderground v.1.15,2016-07-27 18:58:00,
2016-07-27 15:03:00,86.3,68.8,29.95,NNW,327,1.0,1.0,56,0.00,,,0.00,Wunderground v.1.15,2016-07-27 19:03:00,
2016-07-27 15:13:00,87.4,67.1,29.95,WSW,244,2.0,10.0,51,0.00,,,0.00,Wunderground v.1.15,2016-07-27 19:13:00,
2016-07-27 15:23:00,89.1,66.9,29.95,SW,226,5.0,6.0,48,0.00,,,0.00,Wunderground v.1.15,2016-07-27 19:23:00,
2016-07-27 15:28:00,89.7,68.0,29.94,WSW,258,4.0,6.0,49,0.00,,,0.00,Wunderground v.1.15,2016-07-27 19:28:00,
2016-07-27 15:38:00,89.8,69.3,29.94,West,262,6.0,7.0,51,0.00,,,0.00,Wunderground v.1.15,2016-07-27 19:38:00,
2016-07-27 15:48:00,89.8,68.7,29.94,WSW,258,7.0,7.0,50,0.00,,,0.00,Wunderground v.1.15,2016-07-27 19:48:00,
2016-07-27 15:53:00,89.7,66.8,29.94,NW,318,8.0,8.0,47,0.00,,,0.00,Wunderground v.1.15,2016-07-27 19:53:00,
2016-07-27 16:03:00,90.1,69.0,29.94,West,281,5.0,5.0,50,0.00,,,0.00,Wunderground v.1.15,2016-07-27 20:03:00,
2016-07-27 16:13:00,89.7,67.4,29.93,West,280,5.0,6.0,48,0.00,,,0.00,Wunderground v.1.15,2016-07-27 20:13:00,
2016-07-27 16:18:00,89.5,67.2,29.93,West,261,5.0,13.0,48,0.00,,,0.00,Wunderground v.1.15,2016-07-27 20:18:00,
2016-07-27 16:28:00,88.5,66.9,29.93,NW,320,6.0,7.0,49,0.00,,,0.00,Wunderground v.1.15,2016-07-27 20:28:00,
2016-07-27 16:33:00,89.3,68.2,29.93,NW,324,5.0,5.0,50,0.00,,,0.00,Wunderground v.1.15,2016-07-27 20:33:00,
2016-07-27 16:43:00,90.3,66.7,29.92,SW,217,4.0,6.0,46,0.00,,,0.00,Wunderground v.1.15,2016-07-27 20:43:00,
2016-07-27 16:48:00,90.1,66.5,29.92,NW,308,6.0,6.0,46,0.00,,,0.00,Wunderground v.1.15,2016-07-27 20:48:00,
2016-07-27 16:58:00,90.4,66.2,29.92,WNW,300,5.0,8.0,45,0.00,,,0.00,Wunderground v.1.15,2016-07-27 20:58:00,
2016-07-27 17:08:00,90.7,67.7,29.92,SW,225,7.0,7.0,47,0.00,,,0.00,Wunderground v.1.15,2016-07-27 21:08:00,
2016-07-27 17:13:00,90.1,67.2,29.92,WNW,290,7.0,7.0,47,0.00,,,0.00,Wunderground v.1.15,2016-07-27 21:13:00,
2016-07-27 17:23:00,90.7,66.4,29.92,WNW,287,6.0,6.0,45,0.00,,,0.00,Wunderground v.1.15,2016-07-27 21:23:00,
2016-07-27 17:28:00,90.5,67.5,29.92,NW,325,5.0,6.0,47,0.00,,,0.00,Wunderground v.1.15,2016-07-27 21:28:00,
2016-07-27 17:38:00,89.8,65.6,29.91,WNW,303,5.0,8.0,45,0.00,,,0.00,Wunderground v.1.15,2016-07-27 21:38:00,
2016-07-27 17:48:00,89.8,66.9,29.91,NNW,331,4.0,10.0,47,0.00,,,0.00,Wunderground v.1.15,2016-07-27 21:48:00,
2016-07-27 17:53:00,89.8,66.9,29.91,NW,307,7.0,7.0,47,0.00,,,0.00,Wunderground v.1.15,2016-07-27 21:53:00,
2016-07-27 18:03:00,90.0,66.4,29.91,West,270,5.0,5.0,46,0.00,,,0.00,Wunderground v.1.15,2016-07-27 22:03:00,
2016-07-27 18:08:00,89.9,66.3,29.90,NW,320,5.0,6.0,46,0.00,,,0.00,Wunderground v.1.15,2016-07-27 22:08:00,
2016-07-27 18:18:00,90.2,67.2,29.90,WSW,258,5.0,6.0,47,0.00,,,0.00,Wunderground v.1.15,2016-07-27 22:18:00,
2016-07-27 18:28:00,89.9,66.3,29.90,SW,234,5.0,7.0,46,0.00,,,0.00,Wunderground v.1.15,2016-07-27 22:28:00,
2016-07-27 18:33:00,89.7,67.4,29.91,NW,309,5.0,8.0,48,0.00,,,0.00,Wunderground v.1.15,2016-07-27 22:33:00,
2016-07-27 18:43:00,89.3,67.6,29.91,WNW,298,5.0,5.0,49,0.00,,,0.00,Wunderground v.1.15,2016-07-27 22:43:00,
2016-07-27 18:53:00,89.3,67.0,29.91,NW,313,4.0,6.0,48,0.00,,,0.00,Wunderground v.1.15,2016-07-27 22:53:00,
2016-07-27 18:58:00,89.3,67.6,29.91,NNW,327,5.0,6.0,49,0.00,,,0.00,Wunderground v.1.15,2016-07-27 22:58:00,
2016-07-27 19:08:00,89.6,67.3,29.91,NW,313,4.0,5.0,48,0.00,,,0.00,Wunderground v.1.15,2016-07-27 23:08:00,
2016-07-27 19:13:00,89.6,67.3,29.90,WSW,246,4.0,8.0,48,0.00,,,0.00,Wunderground v.1.15,2016-07-27 23:13:00,
2016-07-27 19:23:00,88.4,66.8,29.90,WSW,250,3.0,5.0,49,0.00,,,0.00,Wunderground v.1.15,2016-07-27 23:23:00,
2016-07-27 19:28:00,88.1,67.1,29.90,WNW,302,3.0,7.0,50,0.00,,,0.00,Wunderground v.1.15,2016-07-27 23:28:00,
2016-07-27 19:38:00,88.0,67.6,29.90,WNW,292,4.0,4.0,51,0.00,,,0.00,Wunderground v.1.15,2016-07-27 23:38:00,
2016-07-27 19:48:00,87.8,67.4,29.90,NW,305,4.0,4.0,51,0.00,,,0.00,Wunderground v.1.15,2016-07-27 23:48:00,
2016-07-27 19:53:00,87.7,67.9,29.90,West,269,3.0,3.0,52,0.00,,,0.00,Wunderground v.1.15,2016-07-27 23:53:00,
2016-07-27 20:03:00,86.8,67.6,29.89,NW,304,3.0,3.0,53,0.00,,,0.00,Wunderground v.1.15,2016-07-28 00:03:00,
2016-07-27 20:08:00,86.1,68.0,29.89,WNW,298,3.0,3.0,55,0.00,,,0.00,Wunderground v.1.15,2016-07-28 00:08:00,
2016-07-27 20:13:00,85.5,68.0,29.89,WNW,290,3.0,5.0,56,0.00,,,0.00,Wunderground v.1.15,2016-07-28 00:13:00,
2016-07-27 20:23:00,84.7,67.8,29.89,West,275,2.0,3.0,57,0.00,,,0.00,Wunderground v.1.15,2016-07-28 00:23:00,
2016-07-27 20:33:00,84.0,68.1,29.89,West,279,3.0,3.0,59,0.00,,,0.00,Wunderground v.1.15,2016-07-28 00:33:00,
2016-07-27 20:48:00,83.3,68.0,29.89,NW,311,3.0,4.0,60,0.00,,,0.00,Wunderground v.1.15,2016-07-28 00:48:00,
2016-07-27 20:58:00,82.9,68.1,29.89,WNW,302,2.0,2.0,61,0.00,,,0.00,Wunderground v.1.15,2016-07-28 00:58:00,
2016-07-27 21:03:00,82.6,67.8,29.89,WNW,283,2.0,2.0,61,0.00,,,0.00,Wunderground v.1.15,2016-07-28 01:03:00,
2016-07-27 21:13:00,82.1,68.3,29.89,NW,308,2.0,2.0,63,0.00,,,0.00,Wunderground v.1.15,2016-07-28 01:13:00,
2016-07-27 21:23:00,81.5,68.1,29.90,NW,307,2.0,2.0,64,0.00,,,0.00,Wunderground v.1.15,2016-07-28 01:23:00,
2016-07-27 21:28:00,80.9,68.0,29.90,NW,307,2.0,2.0,65,0.00,,,0.00,Wunderground v.1.15,2016-07-28 01:28:00,
2016-07-27 21:38:00,80.2,68.2,29.90,West,281,2.0,3.0,67,0.00,,,0.00,Wunderground v.1.15,2016-07-28 01:38:00,
2016-07-27 21:43:00,79.9,68.4,29.91,West,281,2.0,2.0,68,0.00,,,0.00,Wunderground v.1.15,2016-07-28 01:43:00,
2016-07-27 21:53:00,79.4,68.3,29.92,West,268,3.0,3.0,69,0.00,,,0.00,Wunderground v.1.15,2016-07-28 01:53:00,
2016-07-27 21:58:00,79.3,68.2,29.91,West,263,3.0,3.0,69,0.00,,,0.00,Wunderground v.1.15,2016-07-28 01:58:00,